period_start,C,m1,H,J0,J1,J2,J3,J4,J5,JA,JB,JC,JD,JJ,JK,JN,#
2017-01-11 00:03:09,0.12,9.10,0.00,22.08,26.36,29.66,14.75,50.68,1030.19,2029.00,1443.04,1535.94,1706.19,599.70,605.63,48.45,0000 0000 0000 0000 000000
2017-01-11 00:08:10,0.16,9.10,0.00,22.05,26.35,29.63,14.86,50.66,1030.29,2029.00,1442.13,1535.13,1705.63,600.07,606.08,48.51,0000 0000 0000 0000 000000
2017-01-11 00:13:11,0.09,9.11,0.00,22.06,26.34,29.60,14.82,50.96,1030.22,2029.01,1441.25,1534.94,1704.92,599.54,605.39,48.56,0000 0000 0000 0000 000000
2017-01-11 00:18:12,0.17,9.12,0.00,22.05,26.32,29.63,14.84,51.23,1030.08,2029.02,1440.14,1534.14,1704.08,600.04,605.87,48.61,0000 0000 0000 0000 000000
2017-01-11 00:23:13,0.16,9.12,0.00,22.04,26.32,29.61,14.83,51.24,1029.95,2029.03,1439.22,1533.62,1703.32,600.31,606.09,48.66,0000 0000 0000 0000 000000
2017-01-11 00:28:15,0.11,9.13,0.00,22.03,26.30,29.64,14.79,51.05,1030.23,2029.03,1438.31,1533.02,1702.76,599.77,605.80,48.71,0000 0000 0000 0000 000000
2017-01-11 00:33:16,0.16,9.14,0.00,22.04,26.30,29.60,14.85,50.98,1030.28,2029.07,1437.41,1532.35,1701.98,599.89,605.86,48.76,0000 0000 0000 0000 000000
2017-01-11 00:38:17,0.13,9.14,0.00,22.01,26.30,29.56,14.87,50.64,1030.21,2029.16,1436.49,1531.91,1701.15,600.05,605.96,48.81,0000 0000 0000 0000 000000
2017-01-11 00:43:18,0.17,9.15,0.00,22.00,26.28,29.58,14.89,50.68,1029.97,2029.34,1435.67,1531.13,1700.57,599.95,605.79,48.86,0000 0000 0000 0000 000000
2017-01-11 00:48:19,0.14,9.16,0.00,21.99,26.27,29.55,14.77,50.63,1030.00,2029.41,1434.73,1530.66,1699.91,599.80,605.82,48.91,0000 0000 0000 0000 000000
2017-01-11 00:53:21,0.17,9.17,0.00,21.97,26.27,29.59,14.84,50.44,1030.24,2029.69,1433.77,1530.01,1699.06,600.23,606.34,48.96,0000 0000 0000 0000 000000
2017-01-11 00:58:22,0.18,9.18,0.00,21.97,26.25,29.58,14.84,50.65,1029.97,2029.84,1432.78,1529.38,1698.41,600.11,605.98,49.01,0000 0000 0000 0000 000000
2017-01-11 01:03:23,0.10,9.18,0.00,21.99,26.25,29.55,14.82,50.57,1029.87,2029.89,1431.86,1528.85,1697.75,599.76,605.79,49.06,0000 0000 0000 0000 000000
2017-01-11 01:08:24,0.14,9.19,0.00,21.99,26.24,29.57,14.85,50.71,1029.91,2029.88,1430.93,1528.06,1697.00,600.05,605.93,49.11,0000 0000 0000 0000 000000
2017-01-11 01:13:26,0.17,9.20,0.00,21.96,26.22,29.52,14.79,50.75,1029.86,2029.93,1429.96,1527.63,1696.18,599.93,606.02,49.16,0000 0000 0000 0000 000000
2017-01-11 01:18:27,0.12,9.21,0.00,21.96,26.22,29.51,14.82,50.73,1029.90,2029.97,1429.07,1527.01,1695.59,599.94,605.93,49.21,0000 0000 0000 0000 000000
2017-01-11 01:23:29,0.14,9.21,0.00,21.95,26.21,29.43,14.78,50.73,1030.04,2029.97,1428.20,1526.31,1694.95,599.91,605.94,49.26,0000 0000 0000 0000 000000
2017-01-11 01:28:30,0.12,9.22,0.00,21.95,26.20,29.46,14.89,50.75,1030.20,2029.97,1427.38,1525.90,1694.11,600.16,606.24,49.31,0000 0000 0000 0000 000000
2017-01-11 01:33:32,0.17,9.23,0.00,21.94,26.20,29.48,14.88,50.73,1030.28,2029.98,1426.32,1525.09,1693.36,600.01,606.20,49.36,0000 0000 0000 0000 000000
2017-01-11 01:38:33,0.15,9.23,0.00,21.91,26.18,29.50,14.84,50.63,1030.29,2029.99,1425.26,1524.56,1692.75,600.37,606.66,49.41,0000 0000 0000 0000 000000
2017-01-11 01:43:34,0.11,9.24,0.00,21.91,26.17,29.48,14.77,50.89,1030.29,2029.99,1424.23,1524.00,1692.02,599.74,606.16,49.46,0000 0000 0000 0000 000000
2017-01-11 01:48:36,0.16,9.25,0.00,21.93,26.17,29.47,14.86,50.99,1030.29,2029.99,1423.50,1523.31,1691.25,600.24,606.54,49.52,0000 0000 0000 0000 000000
2017-01-11 01:53:37,0.09,9.26,0.00,21.88,26.15,29.44,14.86,50.95,1030.29,2029.99,1422.67,1522.94,1690.72,600.15,606.58,49.57,0000 0000 0000 0000 000000
2017-01-11 01:58:38,0.12,9.26,0.00,21.88,26.15,29.43,14.90,50.73,1030.33,2029.99,1421.93,1522.18,1690.03,600.25,606.77,49.62,0000 0000 0000 0000 000000
2017-01-11 02:03:39,0.11,9.27,0.00,21.88,26.13,29.42,14.80,50.68,1030.36,2029.99,1421.12,1521.87,1689.40,600.34,606.54,49.67,0000 0000 0000 0000 000000
2017-01-11 02:08:41,0.14,9.28,0.00,21.84,26.12,29.42,14.86,50.85,1030.52,2030.00,1420.24,1521.08,1688.86,599.95,606.60,49.72,0000 0000 0000 0000 000000
2017-01-11 02:13:42,0.11,9.28,0.00,21.84,26.12,29.46,14.83,50.42,1030.65,2030.00,1419.58,1520.82,1688.07,600.22,606.81,49.77,0000 0000 0000 0000 000000
2017-01-11 02:18:43,0.11,9.29,0.00,21.84,26.10,29.46,14.78,50.24,1030.75,2030.00,1418.89,1520.08,1687.67,599.62,606.32,49.82,0000 0000 0000 0000 000000
2017-01-11 02:23:45,0.08,9.29,0.00,21.82,26.10,29.43,14.86,50.40,1030.77,2030.01,1418.06,1519.92,1687.01,599.95,606.70,49.87,0000 0000 0000 0000 000000
2017-01-11 02:28:46,0.16,9.30,0.00,21.83,26.09,29.39,14.83,50.16,1030.78,2030.03,1417.29,1519.15,1686.44,599.95,606.57,49.92,0000 0000 0000 0000 000000
2017-01-11 02:33:47,0.09,9.30,0.00,21.85,26.07,29.36,14.80,50.36,1030.78,2030.03,1416.45,1518.88,1685.96,599.59,606.24,49.97,0000 0000 0000 0000 000000
2017-01-11 02:38:49,0.14,9.31,0.00,21.85,26.07,29.36,14.87,50.48,1030.78,2030.05,1415.77,1518.09,1685.15,600.15,606.86,50.02,0000 0000 0000 0000 000000
2017-01-11 02:43:50,0.09,9.32,0.00,21.87,26.05,29.33,14.84,50.27,1030.82,2030.02,1414.99,1517.79,1684.63,600.25,606.97,50.07,0000 0000 0000 0000 000000
2017-01-11 02:48:52,0.13,9.32,0.00,21.88,26.05,29.26,14.74,50.23,1030.92,2030.01,1414.15,1517.05,1684.01,599.87,606.66,50.12,0000 0000 0000 0000 000000
2017-01-11 02:53:53,0.12,9.33,0.00,21.90,26.05,29.22,14.82,50.43,1030.91,2030.04,1413.45,1516.76,1683.44,599.73,606.33,50.17,0000 0000 0000 0000 000000
2017-01-11 02:58:54,0.14,9.34,0.00,21.92,26.04,29.28,14.80,50.45,1030.81,2030.10,1412.45,1516.04,1682.95,599.76,606.28,50.22,0000 0000 0000 0000 000000
2017-01-11 03:03:55,0.09,9.34,0.00,21.91,26.03,29.26,14.80,50.60,1030.78,2030.13,1411.82,1515.70,1682.13,599.93,606.51,50.27,0000 0000 0000 0000 000000
2017-01-11 03:08:57,0.11,9.35,0.00,21.88,26.02,29.31,14.86,50.97,1030.84,2030.22,1411.02,1515.02,1681.83,599.79,606.67,50.32,0000 0000 0000 0000 000000
2017-01-11 03:13:58,0.11,9.35,0.00,21.89,26.02,29.32,14.86,50.78,1031.07,2030.09,1410.32,1514.72,1681.05,600.02,606.72,50.37,0000 0000 0000 0000 000000
2017-01-11 03:18:59,0.09,9.36,0.00,21.89,26.02,29.18,14.80,50.60,1031.18,2030.11,1409.84,1514.06,1680.69,600.07,606.93,50.43,0000 0000 0000 0000 000000
2017-01-11 03:24:01,0.09,9.37,0.00,21.86,26.02,29.18,14.91,50.77,1031.24,2030.16,1409.06,1513.90,1680.03,600.17,607.20,50.48,0000 0000 0000 0000 000000
2017-01-11 03:29:02,0.19,9.37,0.00,21.87,26.02,29.19,14.80,50.62,1031.26,2030.23,1408.30,1513.11,1679.54,599.98,607.04,50.53,0000 0000 0000 0000 000000
2017-01-11 03:34:03,0.04,9.38,0.00,21.88,26.00,29.21,14.81,50.54,1031.28,2030.39,1407.84,1512.97,1679.00,600.11,607.11,50.58,0000 0000 0000 0000 000000
2017-01-11 03:39:05,0.17,9.39,0.00,21.87,26.00,29.21,14.80,50.83,1031.29,2030.51,1407.01,1512.26,1678.40,600.01,606.94,50.63,0000 0000 0000 0000 000000
2017-01-11 03:44:06,0.12,9.39,0.00,21.88,26.00,29.23,14.79,50.82,1031.29,2030.64,1406.12,1511.98,1677.97,599.63,606.65,50.68,0000 0000 0000 0000 000000
2017-01-11 03:49:07,0.19,9.40,0.00,21.87,26.00,29.22,14.84,50.99,1031.28,2030.78,1405.33,1511.20,1677.17,599.86,606.88,50.73,0000 0000 0000 0000 000000
2017-01-11 03:54:09,0.14,9.40,0.00,21.83,26.00,29.23,14.83,51.35,1031.27,2030.85,1404.62,1510.66,1676.44,600.08,607.15,50.78,0000 0000 0000 0000 000000
2017-01-11 03:59:10,0.06,9.41,0.00,21.82,26.00,29.25,14.85,50.77,1031.54,2030.85,1403.99,1510.02,1675.99,600.10,607.29,50.83,0000 0000 0000 0000 000000
2017-01-11 04:04:11,0.13,9.42,0.00,21.78,26.00,29.25,14.84,50.19,1031.80,2030.91,1403.20,1509.85,1675.32,600.01,607.45,50.88,0000 0000 0000 0000 000000
2017-01-11 04:09:13,0.09,9.42,0.00,21.77,25.99,29.20,14.88,50.47,1031.81,2030.85,1402.66,1509.08,1674.95,600.00,607.38,50.93,0000 0000 0000 0000 000000
2017-01-11 04:14:14,0.08,9.43,0.00,21.80,25.98,29.25,14.75,50.44,1031.77,2030.93,1402.02,1508.98,1674.32,599.78,607.16,50.98,0000 0000 0000 0000 000000
2017-01-11 04:19:16,0.14,9.43,0.00,21.80,25.97,29.36,14.85,50.42,1031.78,2030.95,1401.32,1508.32,1673.96,600.05,607.37,51.03,0000 0000 0000 0000 000000
2017-01-11 04:24:17,0.09,9.44,0.00,21.77,25.97,29.18,14.89,50.53,1031.77,2030.96,1400.75,1508.00,1673.19,600.17,607.53,51.08,0000 0000 0000 0000 000000
2017-01-11 04:29:18,0.08,9.44,0.00,21.79,25.97,29.21,14.80,50.84,1031.76,2030.96,1400.03,1507.60,1672.96,599.76,607.08,51.13,0000 0000 0000 0000 000000
2017-01-11 04:34:20,0.12,9.45,0.00,21.76,25.96,29.28,14.88,51.08,1031.75,2030.95,1399.47,1507.03,1672.19,600.23,607.61,51.18,0000 0000 0000 0000 000000
2017-01-11 04:39:21,0.12,9.45,0.00,21.74,25.95,29.20,14.82,51.05,1031.75,2030.98,1398.64,1506.71,1671.90,599.80,607.32,51.23,0000 0000 0000 0000 000000
2017-01-11 04:44:23,0.15,9.46,0.00,21.75,25.95,29.21,14.92,51.54,1031.74,2030.97,1397.51,1506.02,1671.08,599.97,607.34,51.28,0000 0000 0000 0000 000000
2017-01-11 04:49:24,0.12,9.47,0.00,21.73,25.95,29.26,14.92,51.02,1031.79,2030.99,1396.99,1505.40,1670.45,600.23,607.82,51.34,0000 0000 0000 0000 000000
2017-01-11 04:54:25,0.08,9.47,0.00,21.71,25.93,29.24,14.83,50.52,1032.15,2030.97,1396.29,1505.00,1669.99,599.93,607.72,51.39,0000 0000 0000 0000 000000
2017-01-11 04:59:26,0.07,9.48,0.00,21.70,25.92,29.26,14.80,50.45,1032.24,2030.97,1395.93,1504.72,1669.37,599.79,607.58,51.44,0000 0000 0000 0000 000000
2017-01-11 05:04:28,0.11,9.48,0.00,21.69,25.92,29.22,14.93,50.50,1032.25,2030.98,1395.10,1504.04,1668.97,600.49,608.31,51.49,0000 0000 0000 0000 000000
2017-01-11 05:09:29,0.11,9.49,0.00,21.69,25.90,29.23,14.84,50.59,1032.24,2030.99,1394.22,1503.92,1668.19,600.00,607.90,51.54,0000 0000 0000 0000 000000
2017-01-11 05:14:30,0.08,9.49,0.00,21.67,25.90,29.18,14.85,50.73,1032.25,2030.99,1393.89,1503.15,1667.97,600.37,608.28,51.59,0000 0000 0000 0000 000000
2017-01-11 05:19:32,0.10,9.50,0.00,21.67,25.89,29.17,14.91,50.64,1032.35,2030.99,1393.09,1502.98,1667.31,600.19,607.96,51.64,0000 0000 0000 0000 000000
2017-01-11 05:24:33,0.08,9.50,0.00,21.67,25.87,29.14,14.88,50.45,1032.71,2030.99,1392.78,1502.44,1666.99,600.18,608.51,51.69,0000 0000 0000 0000 000000
2017-01-11 05:29:34,0.10,9.51,0.00,21.69,25.87,29.12,14.89,50.41,1032.73,2030.99,1392.02,1502.01,1666.37,599.94,608.08,51.74,0000 0000 0000 0000 000000
2017-01-11 05:34:36,0.11,9.51,0.00,21.69,25.86,29.12,14.84,50.33,1032.74,2030.99,1391.29,1501.62,1665.97,599.76,607.93,51.79,0000 0000 0000 0000 000000
2017-01-11 05:39:37,0.12,9.52,0.00,21.68,25.85,29.10,14.84,50.60,1032.73,2031.00,1390.66,1501.02,1665.18,599.93,607.94,51.84,0000 0000 0000 0000 000000
2017-01-11 05:44:39,0.06,9.52,0.00,21.69,25.85,29.04,14.89,50.69,1032.73,2031.00,1389.98,1500.79,1664.90,600.06,608.29,51.89,0000 0000 0000 0000 000000
2017-01-11 05:49:40,0.15,9.53,0.00,21.70,25.84,29.11,14.81,50.42,1032.75,2031.00,1389.15,1500.05,1664.10,600.24,608.37,51.94,0000 0000 0000 0000 000000
2017-01-11 05:54:41,0.07,9.53,0.00,21.68,25.83,29.07,14.87,50.21,1033.01,2031.00,1388.61,1499.89,1663.83,599.80,608.31,51.99,0000 0000 0000 0000 000000
2017-01-11 05:59:42,0.12,9.54,0.00,21.70,25.82,29.07,14.90,50.22,1033.18,2031.01,1387.99,1499.12,1663.06,600.12,608.49,52.04,0000 0000 0000 0000 000000
2017-01-11 06:04:43,0.08,9.55,0.00,21.70,25.82,29.05,14.81,50.29,1033.22,2031.00,1387.23,1498.96,1662.82,599.49,607.87,52.09,0000 0000 0000 0000 000000
2017-01-11 06:09:45,0.15,9.55,0.00,21.70,25.82,29.07,14.91,50.34,1033.22,2031.00,1386.59,1498.22,1662.05,599.97,608.35,52.14,0000 0000 0000 0000 000000
2017-01-11 06:14:46,0.04,9.56,0.00,21.72,25.81,29.03,14.88,50.46,1033.21,2031.01,1385.97,1497.99,1661.76,599.86,608.28,52.19,0000 0000 0000 0000 000000
2017-01-11 06:19:47,0.15,9.56,0.00,21.70,25.80,29.06,14.84,50.28,1033.24,2031.00,1385.17,1497.54,1661.06,599.98,608.46,52.24,0000 0000 0000 0000 000000
2017-01-11 06:24:49,0.08,9.57,0.00,21.70,25.80,29.15,14.84,50.40,1033.27,2031.01,1384.68,1497.01,1660.74,599.73,608.14,52.30,0000 0000 0000 0000 000000
2017-01-11 06:29:50,0.09,9.57,0.00,21.70,25.80,29.12,14.88,50.30,1033.61,2031.00,1384.01,1496.73,1660.05,599.89,608.59,52.35,0000 0000 0000 0000 000000
2017-01-11 06:34:52,0.13,9.58,0.00,21.71,25.80,29.15,14.88,50.16,1033.71,2031.00,1383.25,1496.04,1659.69,599.96,608.68,52.40,0000 0000 0000 0000 000000
2017-01-11 06:39:53,0.06,9.58,0.00,21.70,25.80,29.07,14.86,50.28,1033.71,2031.01,1382.73,1495.94,1659.03,599.55,608.46,52.45,0000 0000 0000 0000 000000
2017-01-11 06:44:54,0.13,9.59,0.00,21.72,25.80,29.13,14.91,50.39,1033.73,2031.00,1382.03,1495.19,1658.66,599.96,608.67,52.50,0000 0000 0000 0000 000000
2017-01-11 06:49:55,0.10,9.60,0.00,21.70,25.80,29.17,14.88,50.31,1033.79,2031.03,1381.33,1494.98,1658.01,600.14,608.91,52.55,0000 0000 0000 0000 000000
2017-01-11 06:54:56,0.13,9.60,0.00,21.70,25.80,29.17,14.90,50.44,1033.74,2031.03,1380.75,1494.36,1657.55,600.38,609.15,52.60,0000 0000 0000 0000 000000
2017-01-11 06:59:58,0.06,9.61,0.00,21.72,25.79,29.14,14.83,50.28,1033.76,2031.02,1380.02,1494.00,1656.99,599.88,608.54,52.65,0000 0000 0000 0000 000000
2017-01-11 07:05:00,0.16,9.61,0.00,21.73,25.79,29.16,14.90,50.28,1034.03,2031.01,1379.33,1493.45,1656.37,600.31,609.22,52.70,0000 0000 0000 0000 000000
2017-01-11 07:10:01,0.06,9.62,0.00,21.71,25.79,29.10,14.78,50.44,1034.18,2031.00,1378.74,1493.00,1655.98,599.56,608.65,52.75,0000 0000 0000 0000 000000
2017-01-11 07:15:02,0.10,9.62,0.00,21.73,25.78,29.11,14.94,50.55,1034.19,2031.01,1378.02,1492.79,1655.39,600.18,609.31,52.80,0000 0000 0000 0000 000000
2017-01-11 07:20:04,0.12,9.63,0.00,21.71,25.78,29.18,14.86,50.40,1034.18,2031.00,1377.30,1492.09,1654.99,599.94,608.96,52.85,0000 0000 0000 0000 000000
2017-01-11 07:25:04,0.09,9.63,0.00,21.71,25.78,29.08,14.82,50.67,1034.18,2031.02,1376.67,1491.93,1654.36,599.76,608.70,52.90,0000 0000 0000 0000 000000
2017-01-11 07:30:06,0.10,9.64,0.00,21.73,25.78,29.00,14.90,50.51,1034.19,2031.02,1375.98,1491.18,1653.99,600.16,609.12,52.95,0000 0000 0000 0000 000000
2017-01-11 07:35:07,0.11,9.64,0.00,21.71,25.77,28.99,14.88,50.68,1034.24,2031.04,1375.24,1491.00,1653.36,600.03,608.98,53.00,0000 0000 0000 0000 000000
2017-01-11 07:40:08,0.15,9.65,0.00,21.70,25.77,29.06,14.91,50.90,1034.58,2031.07,1374.31,1490.37,1652.97,600.26,609.43,53.05,0000 0000 0000 0000 000000
2017-01-11 07:45:10,0.08,9.66,0.00,21.69,25.77,29.15,14.88,50.77,1034.77,2031.04,1373.76,1490.00,1652.18,600.07,609.52,53.10,0000 0000 0000 0000 000000
2017-01-11 07:50:11,0.11,9.66,0.00,21.69,25.77,29.17,14.94,50.52,1035.01,2031.04,1373.04,1489.40,1651.83,600.52,610.12,53.15,0000 0000 0000 0000 000000
2017-01-11 07:55:13,0.09,9.67,0.00,21.69,25.77,29.07,14.90,50.31,1035.11,2031.03,1372.56,1489.01,1651.08,600.16,609.72,53.21,0000 0000 0000 0000 000000
2017-01-11 08:00:14,0.06,9.67,0.00,21.70,25.77,29.09,14.85,50.24,1034.93,2031.05,1372.00,1488.78,1650.79,599.70,609.19,53.26,0000 0000 0000 0000 000000
2017-01-11 08:05:15,0.14,9.68,0.00,21.71,25.77,29.01,14.88,50.17,1035.00,2031.02,1371.37,1488.06,1650.05,599.98,609.50,53.31,0000 0000 0000 0000 000000
2017-01-11 08:10:16,0.08,9.68,0.00,21.69,25.77,29.08,14.90,50.52,1034.97,2031.03,1370.66,1487.92,1649.74,600.08,609.58,53.36,0000 0000 0000 0000 000000
2017-01-11 08:15:18,0.12,9.69,0.00,21.69,25.77,29.08,14.88,50.49,1035.15,2031.02,1369.92,1487.11,1649.04,599.88,609.38,53.41,0000 0000 0000 0000 000000
2017-01-11 08:20:19,0.10,9.69,0.00,21.69,25.77,29.06,14.87,50.75,1035.17,2031.02,1369.08,1486.92,1648.50,599.99,609.63,53.46,0000 0000 0000 0000 000000
2017-01-11 08:25:20,0.15,9.70,0.00,21.64,25.77,29.12,14.96,50.83,1035.18,2031.02,1368.30,1486.13,1648.01,600.19,609.93,53.51,0000 0000 0000 0000 000000
2017-01-11 08:30:21,0.08,9.70,0.00,21.66,25.77,29.04,14.99,50.58,1035.31,2031.03,1367.74,1485.96,1647.38,600.40,610.11,53.56,0000 0000 0000 0000 000000
2017-01-11 08:35:23,0.11,9.71,0.00,21.64,25.76,29.10,14.98,50.58,1035.20,2031.03,1367.00,1485.23,1646.95,600.33,610.03,53.61,0000 0000 0000 0000 000000
2017-01-11 08:40:24,0.12,9.72,0.00,21.61,25.75,29.02,14.87,50.64,1035.17,2031.05,1366.22,1484.98,1646.15,599.82,609.62,53.66,0000 0000 0000 0000 000000
2017-01-11 08:45:25,0.14,9.72,0.00,21.60,25.75,29.06,14.95,50.96,1035.16,2031.07,1365.56,1484.27,1645.80,600.29,610.10,53.71,0000 0000 0000 0000 000000
2017-01-11 08:50:27,0.07,9.73,0.00,21.59,25.75,29.05,14.86,51.16,1035.09,2031.04,1364.84,1483.88,1645.01,599.95,609.73,53.76,0000 0000 0000 0000 000000
2017-01-11 08:55:28,0.17,9.74,0.00,21.55,25.75,29.09,14.96,51.20,1034.99,2031.03,1363.89,1483.06,1644.20,600.22,610.08,53.81,0000 0000 0000 0000 000000
2017-01-11 09:00:30,0.12,9.74,0.00,21.53,25.73,29.05,14.88,50.84,1035.26,2031.07,1363.15,1482.71,1643.83,600.20,610.14,53.86,0000 0000 0000 0000 000000
2017-01-11 09:05:31,0.13,9.75,0.00,21.50,25.72,29.03,14.94,50.46,1035.64,2031.05,1362.47,1482.03,1643.05,600.42,610.62,53.91,0000 0000 0000 0000 000000
2017-01-11 09:10:32,0.08,9.75,0.00,21.47,25.72,29.00,14.89,50.29,1035.66,2031.10,1361.86,1481.80,1642.58,600.08,610.45,53.96,0000 0000 0000 0000 000000
2017-01-11 09:15:33,0.14,9.76,0.00,21.46,25.70,29.05,14.95,50.62,1035.65,2031.14,1360.89,1481.08,1642.00,600.54,610.88,54.01,0000 0000 0000 0000 000000
2017-01-11 09:20:34,0.21,9.77,0.00,21.48,25.70,29.03,14.93,50.63,1035.66,2031.27,1359.84,1480.54,1641.28,600.20,610.44,54.06,0000 0000 0000 0000 000000
2017-01-11 09:25:36,0.16,9.78,0.00,21.45,25.68,28.99,14.94,50.88,1035.64,2031.50,1359.05,1480.00,1640.62,599.94,610.30,54.11,0000 0000 0000 0000 000000
2017-01-11 09:30:37,0.17,9.79,0.00,21.42,25.67,29.04,14.86,51.11,1035.37,2031.65,1358.18,1479.35,1639.98,599.54,609.81,54.16,0000 0000 0000 0000 000000
2017-01-11 09:35:38,0.13,9.80,0.00,21.41,25.66,29.03,14.96,51.06,1035.52,2031.90,1357.51,1478.98,1639.19,600.19,610.55,54.22,0000 0000 0000 0000 000000
2017-01-11 09:40:40,0.10,9.80,0.00,21.38,25.65,28.95,15.00,51.12,1035.65,2031.94,1356.99,1478.27,1638.86,600.27,610.76,54.27,0000 0000 0000 0000 000000
2017-01-11 09:45:41,0.11,9.81,0.00,21.36,25.62,29.00,14.99,51.11,1035.92,2031.97,1356.32,1477.99,1638.08,599.82,610.56,54.32,0000 0000 0000 0000 000000
2017-01-11 09:50:42,0.17,9.81,0.00,21.35,25.62,28.97,15.00,50.75,1036.15,2031.98,1355.58,1477.34,1637.59,600.21,611.11,54.37,0000 0000 0000 0000 000000
2017-01-11 09:55:44,0.05,9.82,0.00,21.32,25.60,28.99,14.95,50.82,1036.32,2031.98,1354.92,1476.98,1637.01,599.87,610.85,54.42,0000 0000 0000 0000 000000
2017-01-11 10:00:45,0.16,9.83,0.00,21.30,25.59,28.92,14.92,50.88,1036.44,2031.98,1354.09,1476.36,1636.43,599.94,610.99,54.47,0000 0000 0000 0000 000000
2017-01-11 10:05:46,0.09,9.83,0.00,21.31,25.57,28.89,14.99,50.65,1036.60,2031.99,1353.43,1475.99,1635.93,600.19,611.52,54.52,0000 0000 0000 0000 000000
2017-01-11 10:10:47,0.15,9.84,0.00,21.29,25.55,28.93,14.95,50.68,1036.63,2031.99,1352.73,1475.39,1635.13,599.82,611.23,54.57,0000 0000 0000 0000 000000
2017-01-11 10:15:49,0.08,9.85,0.00,21.26,25.54,28.86,14.97,50.53,1036.64,2031.99,1351.94,1474.99,1634.75,600.23,611.36,54.62,0000 0000 0000 0000 000000
2017-01-11 10:20:50,0.16,9.85,0.00,21.25,25.52,28.86,14.96,50.66,1036.64,2031.99,1351.10,1474.30,1634.04,600.04,611.40,54.67,0000 0000 0000 0000 000000
2017-01-11 10:25:51,0.09,9.86,0.00,21.27,25.52,28.82,14.98,50.61,1036.69,2031.99,1350.58,1473.99,1633.61,600.09,611.51,54.72,0000 0000 0000 0000 000000
2017-01-11 10:30:52,0.11,9.86,0.00,21.26,25.50,28.84,14.93,50.60,1036.70,2031.99,1349.90,1473.39,1633.01,600.20,611.56,54.77,0000 0000 0000 0000 000000
2017-01-11 10:35:54,0.11,9.87,0.00,21.24,25.49,28.79,14.94,50.64,1036.65,2031.99,1349.07,1472.99,1632.37,599.44,610.89,54.82,0000 0000 0000 0000 000000
2017-01-11 10:40:55,0.13,9.87,0.00,21.29,25.47,28.84,14.90,50.56,1036.69,2032.00,1348.38,1472.43,1631.99,599.88,611.20,54.87,0000 0000 0000 0000 000000
2017-01-11 10:45:56,0.08,9.88,0.00,21.28,25.47,28.73,14.99,50.52,1036.89,2032.01,1347.80,1472.00,1631.32,599.92,611.39,54.92,0000 0000 0000 0000 000000
2017-01-11 10:50:57,0.09,9.89,0.00,21.25,25.45,28.75,14.94,50.62,1036.97,2032.02,1347.03,1471.71,1630.90,599.53,611.25,54.97,0000 0000 0000 0000 000000
2017-01-11 10:55:59,0.15,9.90,0.00,21.28,25.45,28.76,14.94,50.57,1037.12,2032.02,1346.29,1471.04,1630.09,599.69,611.35,55.02,0000 0000 0000 0000 000000
2017-01-11 11:01:00,0.12,9.90,0.00,21.27,25.44,28.71,14.95,50.80,1037.12,2032.02,1345.52,1470.81,1629.61,600.02,611.72,55.07,0000 0000 0000 0000 000000
2017-01-11 11:06:02,0.11,9.91,0.00,21.25,25.42,28.73,14.96,50.58,1037.12,2032.04,1344.78,1470.03,1629.00,600.02,611.67,55.13,0000 0000 0000 0000 000000
2017-01-11 11:11:03,0.13,9.91,0.00,21.27,25.42,28.72,14.94,50.67,1037.13,2032.05,1344.00,1469.69,1628.29,599.99,611.58,55.18,0000 0000 0000 0000 000000
2017-01-11 11:16:04,0.12,9.92,0.00,21.27,25.42,28.63,14.86,50.46,1037.16,2032.05,1343.17,1469.04,1627.89,599.84,611.47,55.23,0000 0000 0000 0000 000000
2017-01-11 11:21:06,0.11,9.92,0.00,21.27,25.41,28.67,14.91,50.50,1037.24,2032.07,1342.70,1468.71,1627.08,599.67,611.32,55.28,0000 0000 0000 0000 000000
2017-01-11 11:26:07,0.11,9.93,0.00,21.27,25.40,28.67,14.97,50.56,1037.39,2032.08,1341.97,1468.02,1626.63,599.72,611.50,55.33,0000 0000 0000 0000 000000
2017-01-11 11:31:08,0.12,9.94,0.00,21.27,25.40,28.61,14.99,50.50,1037.30,2032.16,1341.12,1467.77,1626.01,600.34,612.03,55.38,0000 0000 0000 0000 000000
2017-01-11 11:36:10,0.19,9.95,0.00,21.29,25.40,28.56,14.97,50.67,1037.40,2032.35,1340.40,1467.05,1625.33,600.17,611.95,55.43,0000 0000 0000 0000 000000
2017-01-11 11:41:11,0.09,9.95,0.00,21.29,25.40,28.61,14.95,50.53,1037.53,2032.55,1339.76,1466.79,1624.95,599.75,611.68,55.48,0000 0000 0000 0000 000000
2017-01-11 11:46:12,0.13,9.96,0.00,21.30,25.40,28.68,14.90,50.56,1037.54,2032.50,1338.99,1466.05,1624.15,599.97,611.85,55.53,0000 0000 0000 0000 000000
2017-01-11 11:51:13,0.14,9.97,0.00,21.29,25.40,28.76,14.97,50.60,1037.60,2032.61,1338.15,1465.75,1623.74,600.17,612.01,55.58,0000 0000 0000 0000 000000
2017-01-11 11:56:15,0.14,9.97,0.00,21.29,25.40,28.73,14.92,50.78,1037.42,2032.62,1337.52,1465.04,1623.03,599.95,611.71,55.63,0000 0000 0000 0000 000000
2017-01-11 12:01:16,0.14,9.98,0.00,21.30,25.40,28.81,15.00,51.13,1037.41,2032.76,1336.75,1464.77,1622.45,599.93,611.66,55.68,0000 0000 0000 0000 000000
2017-01-11 12:06:17,0.11,9.99,0.00,21.28,25.40,28.78,14.93,51.13,1037.46,2032.88,1336.04,1464.06,1621.99,600.06,611.83,55.73,0000 0000 0000 0000 000000
2017-01-11 12:11:19,0.12,9.99,0.00,21.27,25.40,28.80,14.95,50.98,1037.42,2032.87,1335.17,1463.86,1621.28,599.97,611.72,55.78,0000 0000 0000 0000 000000
2017-01-11 12:16:20,0.08,10.00,0.00,21.27,25.40,28.79,14.97,50.78,1037.64,2032.82,1334.85,1463.10,1620.94,599.85,611.74,55.83,0000 0000 0000 0000 000000
2017-01-11 12:21:21,0.10,10.00,0.00,21.25,25.39,28.78,15.00,50.70,1037.81,2032.83,1334.13,1462.98,1620.15,599.98,612.18,55.88,0000 0000 0000 0000 000000
2017-01-11 12:26:22,0.08,10.01,0.00,21.24,25.39,28.77,14.89,50.63,1037.95,2032.68,1333.74,1462.24,1619.85,599.68,611.86,55.93,0000 0000 0000 0000 000000
2017-01-11 12:31:24,0.09,10.01,0.00,21.24,25.37,28.74,14.92,50.77,1037.91,2032.57,1332.94,1461.96,1619.06,599.94,612.22,55.99,0000 0000 0000 0000 000000
2017-01-11 12:36:25,0.18,10.02,0.00,21.23,25.37,28.64,14.97,50.78,1037.98,2032.65,1332.10,1461.22,1618.58,600.17,612.41,56.04,0000 0000 0000 0000 000000
2017-01-11 12:41:27,0.06,10.02,0.00,21.22,25.37,28.68,14.97,50.68,1038.09,2032.61,1331.50,1460.97,1618.01,599.77,612.10,56.09,0000 0000 0000 0000 000000
2017-01-11 12:46:28,0.17,10.03,0.00,21.22,25.37,28.66,14.97,50.63,1038.10,2032.79,1330.90,1460.27,1617.42,599.74,611.97,56.14,0000 0000 0000 0000 000000
2017-01-11 12:51:29,0.09,10.04,0.00,21.21,25.37,28.63,14.96,50.80,1038.10,2032.92,1330.09,1460.00,1616.98,599.91,612.26,56.19,0000 0000 0000 0000 000000
2017-01-11 12:56:30,0.16,10.04,0.00,21.20,25.36,28.71,14.97,50.58,1038.18,2032.93,1329.52,1459.46,1616.25,599.97,612.32,56.24,0000 0000 0000 0000 000000